{"data":{"norad_id":58194,"intl_designator":"2023-167V","name":"STARLINK-30830","alt_names":[],"object_type":"PAYLOAD","status":"ACTIVE","operator":null,"country":"US","launch_date":"2023-10-30","launch_site_code":"AFETR","launch_vehicle":null,"mission":null,"orbit_class":"UNKNOWN","rcs_meters":null,"size_class":null,"mass_kg":null,"dimensions":null,"purposes":["comms"],"wikipedia_slug":null,"has_3d_model":false,"image_url":null,"decayed_at":null,"tle_current":{"epoch":"2026-05-25T03:45:30.011040Z","epoch_age_seconds":64825,"freshness":"FRESH","line1":"1 58194U 23167V   26145.15659735  .00000858  00000+0  40715-4 0  9996","line2":"2 58194  43.0024  71.1935 0001204 274.4632  85.6082 15.27580744142686","mean_motion":15.27580744,"eccentricity":0.0001204,"inclination_deg":43.0024,"raan_deg":71.1935,"arg_perigee_deg":274.4632,"mean_anomaly_deg":85.6082,"bstar":4.0715e-5,"rev_number":14268,"period_min":94.266702801538,"perigee_km":482.22078169917,"apogee_km":483.87295477464,"semimajor_km":6861.1838682369,"source":"CELESTRAK","updated_at":"2026-05-25T13:38:18.572948Z"}}}